Location: Chipmunk Meadow
(41.1540°N, 122.8814°W)
Time: 14:13:57
(UTC+00:00)

Cosmos 1553 Rocket - Pass Details

Date: 13 April 2024
Orbit: 940 x 1008 km, 82.9° (Epoch: 21 May)

Event Time Altitude Azimuth Distance (km) Brightness Sun altitude
Rises 12:06:22 0° 351° (N) 3,712 7.3 -16.3°
Reaches altitude 10° 12:08:55 10° 351° (N) 2,750 6.6 -15.9°
Maximum altitude 12:15:13 83° 265° (W) 984 3.9 -14.8°
Drops below altitude 10° 12:21:23 10° 178° (S) 2,685 6.1 -13.8°
Sets 12:23:50 0° 177° (S) 3,618 6.8 -13.3°
